STARLINK-1221 (45227 NORAD) Tracking and Keplerian Element Data

This shows tracking and keplerian element data for the satellite.

Feedback or suggestion? Click here.




ElementValue
Catalog45227
NameSTARLINK-1221
Epoch Orbit175
Epoch Day196.91667824
Epoch Year2020
RAAN271.251
Inclination52.9987
Eccentricity0.0001271
Argument of Perigee79.4211
Mean Anonmoly203.0007
Mean Motion15.05585952
Decay Rate-0.00029307
L11 45227U 20012BB 20196.91667824 -.00029307 00000-0 -20002-2 0 9995
L22 45227 52.9987 271.2510 0001271 79.4211 203.0007 15.05585952 1755

Live tracking and technical data element details for STARLINK-1221 (NORAD 45227). STARLINK-1221 can be tracked NOW for your location showing map with azimuth and elevation plus other details from your city location.

Track the satellite on the map from your city or location and see movement details for azimuth, elevation, latitude, longitude, range, height, and movement on the map or in text.







IsCatalogInMostPopularTable: catalog: 45227, numindb: 52
Update: records affected: 1



GetName: 45227 STARLINK-1221

Hit Count: updated at: Thu, 16 Jul 2020 04:17:17 GMT